Regina,

6:21 AM CST on June 29, 2017 (GMT -0600)
Regina

Weather History for CYQR - October, 2012

Change the Weather History Date:

Saturday, October 27, 2012

  Actual Average Record
Temperature  
Mean Temperature 18 °F -  
Max Temperature 25 °F 34 °F 62 °F (1998)
Min Temperature 10 °F 15 °F 6 °F (2008)
Degree Days  
Heating Degree Days 48    
Moisture  
Dew Point 11 °F    
Average Humidity 71    
Maximum Humidity 86    
Minimum Humidity 40    
Precipitation  
Precipitation 0.00 in 0.02 in - ()
Sea Level Pressure  
Sea Level Pressure 30.36 in    
Wind  
Wind Speed 7 mph ()    
Max Wind Speed 12 mph    
Max Gust Speed -    
Visibility 14.2 miles    
Events Snow    
Averages and records for this station are not official NWS values.
T = Trace of Precipitation, MM = Missing Value Source: Averaged Metar Reports

Daily Weather History Graph

Daily Weather History Graph

Search for Another Location

Airport or City:

Trip Planner

Search our weather history database for the weather conditions in past years. The results will help you decide how hot, cold, wet, or windy it might be!

Date:

Astronomy

Oct. 27, 2012 Rise Set
Actual Time 7:41 AM CST 5:42 PM CST
Civil Twilight 7:08 AM CST 6:16 PM CST
Nautical Twilight 6:29 AM CST 6:54 PM CST
Astronomical Twilight 5:52 AM CST 7:31 PM CST
Moon 4:35 PM CST (10/27) 5:30 AM CST (10/27)
Length of Visible Light 11h 07m
Length of Day
10h 00m
Waxing Gibbous, 96% of the Moon is Illuminated
Oct 27
Waxing Gibbous
Oct 29
Full
Nov 6
Last Quarter
Nov 13
New
Nov 20
First Quarter

Hourly Weather History & Observations

Time (CST) Temp. Windchill Dew Point Humidity Pressure Visibility Wind Dir Wind Speed Gust Speed Precip Events Conditions
12:00 AM 23 °F - 17 °F 68% 30.33 in 9 mi NW 10.4 mph - -   Overcast
12:00 AM 23.0 °F 11.7 °F 17.6 °F 80% 30.33 in 15.0 mi NW 11.5 mph - N/A Snow Light Snow
1:00 AM 23.0 °F 12.4 °F 15.8 °F 74% 30.33 in 15.0 mi NNW 10.4 mph - N/A Snow Light Snow
1:16 AM 21.2 °F 11.7 °F - N/A% - 15.0 mi NNW 8.1 mph - N/A   Mostly Cloudy
2:00 AM 21.2 °F 10.1 °F 14.0 °F 74% 30.33 in 15.0 mi NW 10.4 mph - N/A   Mostly Cloudy
3:00 AM 17.6 °F 9.3 °F 14.0 °F 86% 30.34 in 15.0 mi NW 5.8 mph - N/A   Mostly Cloudy
4:00 AM 14.0 °F 6.5 °F 10.4 °F 86% 30.34 in 15.0 mi WNW 4.6 mph - N/A   Scattered Clouds
5:00 AM 15.8 °F 5.1 °F 12.2 °F 86% 30.35 in 15.0 mi NW 8.1 mph - N/A   Mostly Cloudy
6:00 AM 10 °F - 7 °F 81% 30.36 in 9 mi West 6.9 mph - -  
6:00 AM 10.4 °F -0.4 °F 6.8 °F 85% 30.37 in 15.0 mi West 6.9 mph - N/A   Partly Cloudy
7:00 AM 10.4 °F -0.4 °F 6.8 °F 85% 30.37 in 15.0 mi West 6.9 mph - N/A   Partly Cloudy
8:00 AM 12.2 °F 0.7 °F 8.6 °F 85% 30.38 in 15.0 mi West 8.1 mph - N/A   Mostly Cloudy
9:05 AM 19.4 °F 9.5 °F - N/A% - 15.0 mi WNW 8.1 mph - N/A Snow Light Snow
10:00 AM 23.0 °F 13.1 °F 15.8 °F 74% 30.38 in 15.0 mi NW 9.2 mph - N/A   Mostly Cloudy
11:00 AM 23.0 °F 14.7 °F 14.0 °F 68% 30.38 in 15.0 mi NW 6.9 mph - N/A   Mostly Cloudy
12:00 PM 25 °F - 10 °F 40% 30.36 in 9 mi NW 6.9 mph - -   Overcast
12:00 PM 24.8 °F 16.9 °F 10.4 °F 54% 30.36 in 15.0 mi NNW 6.9 mph - N/A   Mostly Cloudy
1:00 PM 24.8 °F 17.9 °F 10.4 °F 54% 30.35 in 15.0 mi North 5.8 mph - N/A   Mostly Cloudy
2:00 PM 24.8 °F 14.0 °F 10.4 °F 54% 30.35 in 15.0 mi NW 11.5 mph - N/A   Mostly Cloudy
3:00 PM 24.8 °F 16.9 °F 10.4 °F 54% 30.35 in 15.0 mi North 6.9 mph - N/A   Mostly Cloudy
4:00 PM 24.8 °F 16.1 °F 12.2 °F 59% 30.35 in 15.0 mi NNE 8.1 mph - N/A   Mostly Cloudy
5:00 PM 24.8 °F 16.1 °F 10.4 °F 54% 30.35 in 15.0 mi North 8.1 mph - N/A   Partly Cloudy
6:00 PM 19 °F - 11 °F 60% 30.37 in 9 mi NNE 9.2 mph - -  
6:00 PM 19.4 °F 9.5 °F 10.4 °F 68% 30.37 in 15.0 mi NNE 8.1 mph - N/A   Partly Cloudy
7:00 PM 17.6 °F 9.3 °F 10.4 °F 73% 30.37 in 15.0 mi NE 5.8 mph - N/A   Partly Cloudy
8:00 PM 17.6 °F 9.3 °F 10.4 °F 73% 30.38 in 15.0 mi NE 5.8 mph - N/A   Mostly Cloudy
9:00 PM 17.6 °F 9.3 °F 10.4 °F 73% 30.38 in 15.0 mi East 5.8 mph - N/A   Mostly Cloudy
10:00 PM 14.0 °F 5.1 °F 8.6 °F 79% 30.37 in 15.0 mi ESE 5.8 mph - N/A   Mostly Cloudy
11:00 PM 15.8 °F 5.1 °F 10.4 °F 79% 30.36 in 15.0 mi ESE 8.1 mph - N/A   Mostly Cloudy